Flag for U.S.A. Weather past 2 weeks in Austin, Texas, U.S.A.

Now
93 °F

Sunny.


Feels Like: 92 °F
Forecast: 70 / 97 °F
Wind: 6 mph from Southeast

Location: Camp Mabry / Austin City

Current Time: Aug 27, 2015 at 7:45:36 PM

Latest Report: Aug 27, 2015 at 6:51 PM


Visibility: 10 mi

Pressure: 29.93 "Hg

Humidity: 30%

Dew point: 57 °F

Location of AustinLocation

Historic Weather in Austin — Graph

°F

Austin temperature yesterday

Maximum temperature yesterday: 95 °F (at 3:51 PM)
Minimum temperature yesterday: 73 °F (at 6:51 AM)
Average temperature yesterday: 84 °F

Past Weeks' High & Low Weather Summary

 TemperatureHumidityPressure
High102 °F (Aug 13, 2:51 PM)97% (Aug 20, 2:58 PM)30.11 "Hg (Aug 20, 2:58 PM)
Low72 °F (Aug 21, 3:51 AM)25% (Aug 27, 4:51 PM)29.69 "Hg (Aug 18, 6:51 PM)
Average86 °F60%29.94 "Hg
* Reported Aug 12 6:51 PM — Aug 27 6:51 PM, Austin, Weather by CustomWeather, © 2015

Note: Actual official high and low records may vary slightly from our data, if they occured in-between our weather recording intervals... More about our weather records

Advertising

Austin weather history for previous 24 hours

 ConditionsComfort  
Time TempWeatherWind HumidityBarometerVisibility
6:51 PM
Thu, Aug 27
93 °FSunny.6 mph30%29.93 "Hg10 mi
5:51 PM96 °FSunny.6 mph28%29.94 "Hg10 mi
4:51 PM97 °FSunny.5 mph25%29.94 "Hg10 mi
3:51 PM96 °FSunny.5 mph27%29.96 "Hg10 mi
2:51 PM98 °FSunny.7 mph31%29.98 "Hg10 mi
1:51 PM95 °FSunny.3 mph32%30.01 "Hg10 mi
12:51 PM93 °FSunny.5 mph40%30.03 "Hg10 mi
11:51 AM90 °FSunny.No wind45%30.06 "Hg10 mi
10:51 AM87 °FSunny.3 mph57%30.06 "Hg10 mi
9:51 AM82 °FSunny.No wind72%30.07 "Hg10 mi
8:51 AM80 °FSunny.No wind74%30.07 "Hg10 mi
7:51 AM76 °FClear.No wind85%30.06 "Hg10 mi
6:51 AM75 °FClear.No wind85%30.04 "Hg10 mi
5:51 AM76 °FClear.3 mph82%30.03 "Hg10 mi
4:51 AM76 °FClear.No wind80%30.03 "Hg10 mi
3:51 AM77 °FClear.3 mph77%30.02 "Hg10 mi
2:51 AM77 °FClear.5 mph77%30.02 "Hg10 mi
1:51 AM79 °FClear.3 mph69%30.03 "Hg10 mi
12:51 AM81 °FClear.5 mph62%30.04 "Hg10 mi
11:51 PM
Wed, Aug 26
82 °FClear.No wind60%30.04 "Hg10 mi
10:51 PM84 °FClear.5 mph57%30.04 "Hg10 mi
9:51 PM86 °FClear.5 mph53%30.03 "Hg10 mi
8:51 PM88 °FSunny.5 mph45%30.01 "Hg10 mi
7:51 PM91 °FSunny.6 mph42%29.99 "Hg10 mi
Weather by CustomWeather, © 2015

See weather overviewHow to use our weather pages